Home   Weather   Shanghai   Past weeks

Flag for China Past Weather in Shanghai, Shanghai Municipality, China — Yesterday and Last 2 Weeks

Now
36 °F

Passing clouds.


Feels Like: 33 °F
Forecast: 33 / 49 °F
Wind: 3 mph from East

Location: Shanghai Hongqiao Airport

Current Time: Jan 23, 2017 at 11:16:39 pm

Latest Report: Jan 23, 2017 at 10:30 pm


Visibility: N/A

Pressure: 30.57 "Hg

Humidity: 65%

Dew Point: 25 °F

Location of ShanghaiLocation

Past Weather in Shanghai — Graph

°F

Shanghai Temperature Yesterday

Maximum temperature yesterday: 45 °F (at 11:30 am)
Minimum temperature yesterday: 30 °F (at 6:00 am)
Average temperature yesterday: 38 °F

High & Low Weather Summary for the Past Weeks

 TemperatureHumidityPressure
High52 °F (Jan 13, 1:00 pm)100% (Jan 13, 6:30 am)30.63 "Hg (Jan 13, 6:30 am)
Low27 °F (Jan 21, 4:30 am)26% (Jan 22, 4:00 pm)30.12 "Hg (Jan 13, 1:00 pm)
Average42 °F65%30.36 "Hg
* Reported Jan 8 10:00 pm — Jan 23 10:00 pm, Shanghai, Weather by CustomWeather, © 2017

Note: Actual official high and low records may vary slightly from our data, if they occured in-between our weather recording intervals... More about our weather records

Advertising

Shanghai Weather History for the Previous 24 Hours

Scroll right to see more
 ConditionsComfort  
Time TempWeatherWind HumidityBarometerVisibility
10:00 pm
Mon, Jan 23
36 °FPassing clouds.6 mph60%30.57 "HgN/A
9:30 pm37 °FClear.6 mph56%30.57 "Hg10 mi
9:00 pm37 °FPassing clouds.6 mph56%30.57 "HgN/A
8:30 pm37 °FClear.6 mph56%30.57 "Hg10 mi
8:00 pm37 °FPassing clouds.8 mph56%30.57 "HgN/A
7:30 pm39 °FClear.8 mph48%30.57 "Hg10 mi
7:00 pm39 °FClear.10 mph45%30.57 "Hg10 mi
6:30 pm39 °FPassing clouds.8 mph42%30.57 "HgN/A
6:00 pm41 °FPassing clouds.8 mph39%30.57 "HgN/A
5:30 pm41 °FClear.10 mph39%30.57 "Hg10 mi
5:00 pm41 °FPassing clouds.8 mph36%30.57 "HgN/A
4:30 pm43 °FPassing clouds.8 mph36%30.54 "HgN/A
4:00 pm43 °FPassing clouds.6 mph36%30.54 "HgN/A
3:30 pm43 °FSunny.10 mph42%30.54 "Hg10 mi
3:00 pm45 °FPassing clouds.8 mph37%30.54 "HgN/A
2:30 pm43 °FPassing clouds.8 mph39%30.54 "HgN/A
2:00 pm45 °FPassing clouds.10 mph37%30.54 "HgN/A
1:30 pm45 °FPassing clouds.10 mph37%30.57 "HgN/A
1:00 pm45 °FPassing clouds.8 mph37%30.57 "HgN/A
12:30 pm45 °FPassing clouds.10 mph37%30.57 "HgN/A
12:00 pm45 °FPassing clouds.6 mph37%30.60 "HgN/A
11:30 am43 °FPassing clouds.8 mph36%30.60 "HgN/A
11:00 am43 °FPassing clouds.8 mph39%30.60 "HgN/A
10:30 am43 °FPassing clouds.8 mph36%30.63 "HgN/A
10:00 am41 °FPassing clouds.8 mph42%30.63 "HgN/A
9:30 am39 °FSunny.10 mph45%30.63 "Hg10 mi
9:00 am39 °FPassing clouds.8 mph52%30.63 "HgN/A
8:30 am36 °FPassing clouds.3 mph65%30.60 "HgN/A
8:00 am34 °FSunny.3 mph75%30.60 "Hg10 mi
7:30 am32 °FSunny.3 mph69%30.60 "Hg10 mi
7:00 am30 °FSunny.1 mph75%30.57 "Hg10 mi
6:30 am28 °FClear.No wind80%30.57 "Hg10 mi
6:00 am30 °FClear.No wind75%30.57 "Hg10 mi
5:30 am30 °FClear.1 mph75%30.57 "Hg10 mi
5:00 am28 °FClear.1 mph74%30.54 "Hg10 mi
4:30 am30 °FClear.3 mph75%30.54 "Hg10 mi
4:00 am28 °FClear.3 mph80%30.54 "Hg10 mi
3:30 am30 °FClear.1 mph75%30.57 "Hg10 mi
3:00 am30 °FClear.1 mph75%30.54 "Hg10 mi
2:30 am32 °FClear.1 mph69%30.54 "Hg10 mi
2:00 am32 °FClear.1 mph64%30.54 "Hg10 mi
1:30 am32 °FClear.3 mph64%30.54 "Hg10 mi
1:00 am32 °FClear.3 mph60%30.54 "Hg10 mi
12:30 am34 °FClear.6 mph56%30.54 "Hg10 mi
12:00 am36 °FClear.6 mph52%30.54 "Hg10 mi
11:30 pm
Sun, Jan 22
34 °FPassing clouds.6 mph56%30.54 "HgN/A
11:00 pm36 °FClear.8 mph52%30.54 "Hg10 mi
Weather by CustomWeather, © 2017

See weather overviewHow to use our weather pages